This is the latest recevied weather packets stored in our database for station/object KN6KS. If no packets are shown the sender has not sent any weather packets the latest 10 day(s).
| Time | Temp. | Humidity | Pressure | Rain* | Wind** | Luminosity | Snow |
|---|---|---|---|---|---|---|---|
| 1777908685 | 11.11° C | 70% | 1013.1 hPa | 0 mm | - | 365 W/m² | - |
| 1777908382 | 11.11° C | 71% | 1013 hPa | 0 mm | - | 271 W/m² | - |
| 1777908078 | 11.11° C | 70% | 1013 hPa | 0 mm | - | 413 W/m² | - |
| 1777907774 | 10.56° C | 72% | 1012.9 hPa | 0 mm | - | 249 W/m² | - |
| 1777907469 | 10.56° C | 72% | 1012.8 hPa | 0 mm | - | 250 W/m² | - |
| 1777907166 | 11.11° C | 72% | 1012.8 hPa | 0 mm | - | 324 W/m² | - |
| 1777906863 | 10.56° C | 72% | 1012.8 hPa | 0 mm | - | 300 W/m² | - |
| 1777906561 | 10.56° C | 72% | 1012.8 hPa | 0 mm | - | 195 W/m² | - |
| 1777906256 | 10.56° C | 73% | 1012.8 hPa | 0 mm | - | 211 W/m² | - |
| 1777905953 | 10.56° C | 73% | 1012.7 hPa | 0 mm | - | 185 W/m² | - |
| 1777905649 | 10.56° C | 73% | 1012.6 hPa | 0 mm | - | 140 W/m² | - |
| 1777905346 | 10.56° C | 73% | 1012.5 hPa | 0 mm | - | 123 W/m² | - |
| 1777905044 | 10.56° C | 74% | 1012.1 hPa | 0 mm | - | 116 W/m² | - |
| 1777904741 | 10° C | 75% | 1012.5 hPa | 0 mm | - | 147 W/m² | - |
| 1777904438 | 10° C | 75% | 1012.5 hPa | 0 mm | - | 84 W/m² | - |
| 1777904135 | 10° C | 75% | 1012.7 hPa | 0 mm | - | 83 W/m² | - |
| 1777903832 | 10° C | 76% | 1012.4 hPa | 0 mm | - | 78 W/m² | - |
| 1777903529 | 10° C | 76% | 1012.4 hPa | 0 mm | - | 67 W/m² | - |
| 1777903225 | 10° C | 76% | 1012.2 hPa | 0 mm | - | 56 W/m² | - |
| 1777902921 | 10° C | 76% | 1012.2 hPa | 0 mm | - | 54 W/m² | - |
| 1777902618 | 10° C | 77% | 1012 hPa | 0 mm | - | 51 W/m² | - |
| 1777902315 | 10° C | 77% | 1012.2 hPa | 0 mm | - | 45 W/m² | - |
| 1777902012 | 10° C | 78% | 1012.1 hPa | 0 mm | - | 35 W/m² | - |
| 1777901711 | 10° C | 77% | 1012.1 hPa | 0 mm | - | 26 W/m² | - |
| 1777901408 | 10° C | 78% | 1012.2 hPa | 0 mm | - | 23 W/m² | - |
* Rain latest hour (hover to see other rain measurements)
** Current wind speed in m/s (hover to see current wind gust speed)